When you browse on this site, cookies collect data to enhance your experience and personalize the content and advertising you see.
Visit our Privacy Policy to learn more. By continuing to use the site, you agree to this use of cookies and data.
  • In United Kingdom
  • List of Countries
  • For 7 days
  • Water Temperature
  • Satellite Maps
  • Weather Map
  • Weather Widgets
  • user-avatar
    Login

    Hourly Weather Mira

    Today, 26 May, Sunday

    Time Temperature Precipitation Wind Pressure Humidity
    00:00 +18°C° 0 mm 2 mps 760 mmHg 76%
    01:00 +17°C° 0 mm 2 mps 760 mmHg 76%
    02:00 +17°C° 0 mm 2 mps 760 mmHg 77%
    03:00 +17°C° 0 mm 3 mps 760 mmHg 78%
    04:00 +16°C° 0 mm 3 mps 760 mmHg 79%
    05:00 +17°C° 0 mm 3 mps 760 mmHg 79%
    06:00 +17°C° 0 mm 3 mps 760 mmHg 79%
    07:00 +18°C° 0 mm 3 mps 760 mmHg 79%
    08:00 +19°C° 0 mm 3 mps 760 mmHg 75%
    09:00 +20°C° 0 mm 3 mps 760 mmHg 71%
    10:00 +21°C° 0 mm 3 mps 760 mmHg 68%
    11:00 +22°C° 0 mm 3 mps 760 mmHg 65%
    12:00 +22°C° 0 mm 3 mps 760 mmHg 62%
    13:00 +24°C° 0 mm 3 mps 760 mmHg 60%
    14:00 +24°C° 0 mm 3 mps 759 mmHg 60%
    15:00 +23°C° 0 mm 4 mps 759 mmHg 61%
    16:00 +22°C° 0 mm 4 mps 759 mmHg 62%
    17:00 +21°C° 0 mm 3 mps 759 mmHg 67%
    18:00 +20°C° 0 mm 3 mps 759 mmHg 73%
    19:00 +19°C° 0 mm 2 mps 759 mmHg 79%
    20:00 +18°C° 0 mm 2 mps 759 mmHg 80%
    21:00 +18°C° 0 mm 2 mps 760 mmHg 81%
    22:00 +18°C° 0 mm 2 mps 760 mmHg 82%
    23:00 +17°C° 0.1 mm 2 mps 760 mmHg 83%

    Tomorrow, 27 May, Monday

    Time Temperature Precipitation Wind Pressure Humidity
    00:00 +17°C° 0.1 mm 2 mps 759 mmHg 83%
    01:00 +17°C° 0.1 mm 2 mps 759 mmHg 84%
    02:00 +17°C° 0.6 mm 2 mps 758 mmHg 86%
    03:00 +17°C° 0.6 mm 2 mps 758 mmHg 88%
    04:00 +16°C° 0.6 mm 2 mps 758 mmHg 90%
    05:00 +17°C° 0.4 mm 2 mps 758 mmHg 89%
    06:00 +17°C° 0.4 mm 2 mps 757 mmHg 89%
    07:00 +17°C° 0.4 mm 2 mps 757 mmHg 89%
    08:00 +17°C° 0.3 mm 3 mps 757 mmHg 88%
    09:00 +17°C° 0.3 mm 3 mps 757 mmHg 88%
    10:00 +17°C° 0.3 mm 3 mps 757 mmHg 88%
    11:00 +18°C° 0.2 mm 4 mps 757 mmHg 86%
    12:00 +18°C° 0.2 mm 4 mps 757 mmHg 85%
    13:00 +17°C° 0.2 mm 5 mps 756 mmHg 84%
    14:00 +17°C° 1.1 mm 5 mps 756 mmHg 85%
    15:00 +16°C° 1.1 mm 5 mps 756 mmHg 86%
    16:00 +16°C° 1.1 mm 5 mps 755 mmHg 88%
    17:00 +17°C° 0.8 mm 4 mps 755 mmHg 88%
    18:00 +17°C° 0.8 mm 4 mps 755 mmHg 89%
    19:00 +16°C° 0.8 mm 3 mps 755 mmHg 90%
    20:00 +15°C° 1.5 mm 4 mps 754 mmHg 90%
    21:00 +15°C° 1.5 mm 4 mps 754 mmHg 91%
    22:00 +15°C° 1.5 mm 4 mps 754 mmHg 91%
    23:00 +14°C° 2.4 mm 4 mps 754 mmHg 91%

    Day after tomorrow, 28 May, Tuesday

    Time Temperature Precipitation Wind Pressure Humidity
    00:00 +14°C° 2.4 mm 4 mps 754 mmHg 92%
    01:00 +14°C° 2.4 mm 4 mps 753 mmHg 92%
    02:00 +14°C° 1.1 mm 3 mps 753 mmHg 92%
    03:00 +14°C° 1.1 mm 3 mps 753 mmHg 91%
    04:00 +14°C° 1.1 mm 3 mps 752 mmHg 91%
    05:00 +14°C° 0.6 mm 3 mps 752 mmHg 91%
    06:00 +14°C° 0.6 mm 3 mps 752 mmHg 90%
    07:00 +14°C° 0.6 mm 3 mps 752 mmHg 90%
    08:00 +16°C° 0.3 mm 2 mps 752 mmHg 89%
    09:00 +16°C° 0.3 mm 2 mps 753 mmHg 89%
    10:00 +16°C° 0.3 mm 2 mps 753 mmHg 88%
    11:00 +16°C° 0.3 mm 2 mps 753 mmHg 88%
    12:00 +16°C° 0.3 mm 2 mps 753 mmHg 87%
    13:00 +16°C° 0.3 mm 2 mps 752 mmHg 87%
    14:00 +17°C° 0.4 mm 2 mps 752 mmHg 86%
    15:00 +17°C° 0.4 mm 2 mps 752 mmHg 85%
    16:00 +17°C° 0.4 mm 2 mps 752 mmHg 85%
    17:00 +17°C° 0.2 mm 2 mps 752 mmHg 85%
    18:00 +16°C° 0.2 mm 2 mps 752 mmHg 85%
    19:00 +16°C° 0.2 mm 1 mps 752 mmHg 86%
    20:00 +16°C° 0.1 mm 1 mps 753 mmHg 86%
    21:00 +16°C° 0.1 mm 1 mps 753 mmHg 87%
    22:00 +15°C° 0.1 mm 1 mps 753 mmHg 88%
    23:00 +15°C° 0.7 mm 2 mps 754 mmHg 89%

    29 May, Wednesday

    Time Temperature Precipitation Wind Pressure Humidity
    00:00 +14°C° 0.7 mm 3 mps 754 mmHg 89%
    01:00 +14°C° 0.7 mm 4 mps 754 mmHg 90%
    02:00 +14°C° 1.2 mm 5 mps 754 mmHg 89%
    03:00 +12°C° 1.2 mm 7 mps 754 mmHg 88%
    04:00 +12°C° 1.2 mm 8 mps 754 mmHg 87%
    05:00 +12°C° 0.9 mm 8 mps 754 mmHg 87%
    06:00 +12°C° 0.9 mm 7 mps 755 mmHg 88%
    07:00 +11°C° 0.9 mm 7 mps 755 mmHg 88%
    08:00 +11°C° 0.3 mm 7 mps 756 mmHg 87%
    09:00 +13°C° 0.3 mm 6 mps 756 mmHg 87%
    10:00 +13°C° 0.3 mm 6 mps 757 mmHg 86%
    11:00 +13°C° 0 mm 5 mps 757 mmHg 83%
    12:00 +14°C° 0 mm 5 mps 757 mmHg 80%
    13:00 +15°C° 0 mm 5 mps 758 mmHg 78%
    14:00 +17°C° 0 mm 4 mps 758 mmHg 74%
    15:00 +18°C° 0 mm 3 mps 758 mmHg 70%
    16:00 +19°C° 0 mm 2 mps 758 mmHg 66%
    17:00 +18°C° 0 mm 2 mps 759 mmHg 69%
    18:00 +19°C° 0 mm 1 mps 759 mmHg 72%
    19:00 +18°C° 0 mm 1 mps 760 mmHg 75%
    20:00 +16°C° 0 mm 1 mps 761 mmHg 77%
    21:00 +16°C° 0 mm 1 mps 761 mmHg 79%
    22:00 +15°C° 0 mm 1 mps 762 mmHg 80%
    23:00 +15°C° 0 mm 1 mps 763 mmHg 81%

    30 May, Thursday

    Time Temperature Precipitation Wind Pressure Humidity
    00:00 +15°C° 0 mm 1 mps 763 mmHg 82%
    01:00 +14°C° 0 mm 1 mps 763 mmHg 83%
    02:00 +14°C° 0 mm 1 mps 763 mmHg 84%
    03:00 +14°C° 0 mm 1 mps 763 mmHg 85%
    04:00 +14°C° 0 mm 1 mps 764 mmHg 85%
    05:00 +14°C° 0 mm 1 mps 764 mmHg 83%
    06:00 +15°C° 0 mm 1 mps 764 mmHg 81%
    07:00 +16°C° 0 mm 1 mps 764 mmHg 79%
    08:00 +18°C° 0 mm 1 mps 764 mmHg 75%
    09:00 +19°C° 0 mm 1 mps 765 mmHg 72%
    10:00 +21°C° 0 mm 1 mps 765 mmHg 68%
    11:00 +20°C° 0 mm 2 mps 764 mmHg 65%
    12:00 +21°C° 0 mm 2 mps 764 mmHg 61%
    13:00 +22°C° 0 mm 3 mps 764 mmHg 58%
    14:00 +22°C° 0 mm 3 mps 764 mmHg 57%
    15:00 +24°C° 0 mm 3 mps 764 mmHg 56%
    16:00 +24°C° 0 mm 2 mps 764 mmHg 55%
    17:00 +23°C° 0 mm 2 mps 764 mmHg 61%
    18:00 +21°C° 0 mm 2 mps 764 mmHg 67%
    19:00 +20°C° 0 mm 2 mps 764 mmHg 72%
    20:00 +19°C° 0 mm 2 mps 765 mmHg 76%
    21:00 +18°C° 0 mm 2 mps 766 mmHg 79%
    22:00 +16°C° 0 mm 2 mps 766 mmHg 82%
    23:00 +16°C° 0 mm 2 mps 766 mmHg 82%

    31 May, Friday

    Time Temperature Precipitation Wind Pressure Humidity
    00:00 +16°C° 0 mm 1 mps 766 mmHg 82%
    01:00 +15°C° 0 mm 1 mps 766 mmHg 82%
    02:00 +15°C° 0 mm 1 mps 766 mmHg 83%
    03:00 +15°C° 0 mm 1 mps 766 mmHg 84%
    04:00 +14°C° 0 mm 1 mps 766 mmHg 86%
    05:00 +15°C° 0 mm 1 mps 766 mmHg 84%
    06:00 +16°C° 0 mm 2 mps 765 mmHg 83%
    07:00 +17°C° 0 mm 2 mps 765 mmHg 81%
    08:00 +18°C° 0 mm 2 mps 765 mmHg 77%
    09:00 +20°C° 0 mm 1 mps 765 mmHg 73%
    10:00 +22°C° 0 mm 1 mps 765 mmHg 69%
    11:00 +22°C° 0 mm 1 mps 764 mmHg 66%
    12:00 +23°C° 0 mm 2 mps 764 mmHg 64%
    13:00 +24°C° 0 mm 2 mps 764 mmHg 61%
    14:00 +24°C° 0 mm 2 mps 763 mmHg 60%
    15:00 +25°C° 0 mm 2 mps 763 mmHg 59%
    16:00 +25°C° 0 mm 2 mps 763 mmHg 58%
    17:00 +24°C° 0 mm 2 mps 763 mmHg 63%
    18:00 +23°C° 0 mm 2 mps 763 mmHg 68%
    19:00 +21°C° 0 mm 2 mps 763 mmHg 73%
    20:00 +21°C° 0 mm 1 mps 763 mmHg 76%
    21:00 +20°C° 0 mm 1 mps 764 mmHg 79%
    22:00 +19°C° 0 mm 1 mps 764 mmHg 82%
    23:00 +19°C° 0 mm 1 mps 764 mmHg 82%
    Show more